EW5311 Weather Reports


time (UTC)temp
F
wind
direction
speed
knots
gust
knots
rain 1hr
in
rain 24hr
in
rain mn
in
humidity
%
barometer
mb
20260504030025 41 266 0.0 0.9 0.00 0.00 0.00 79 1011.5
20260504024555 42 266 0.0 0.9 0.00 0.00 0.00 78 1011.6
20260504023102 42 264 0.0 1.7 0.00 0.00 0.00 74 1011.5
20260504021554 43 266 0.0 0.9 0.00 0.00 0.00 69 1011.6
20260504020058 44 266 0.0 0.9 0.00 0.00 0.00 69 1011.6
20260504014553 45 266 0.0 1.7 0.00 0.00 0.00 65 1011.4
20260504013106 46 266 0.0 1.7 0.00 0.00 0.00 62 1011.2
20260504011552 49 266 0.0 2.6 0.00 0.00 0.00 57 1011.1
20260504010104 51 266 0.0 2.6 0.00 0.00 0.00 53 1011.1
20260504004537 52 266 0.9 2.6 0.00 0.00 0.00 50 1011.0
20260504003036 53 258 0.9 5.2 0.00 0.00 0.00 48 1010.9
20260504001521 53 187 1.7 7.0 0.00 0.00 0.00 45 1011.0
20260504000020 54 258 1.7 7.0 0.00 0.00 0.00 44 1010.9
20260503234535 54 258 2.6 10.4 0.00 0.00 0.00 42 1010.9
20260503233019 55 293 4.3 10.4 0.00 0.00 0.00 42 1010.8
20260503231519 55 291 5.2 14.8 0.00 0.00 0.00 41 1011.0
20260503230019 55 275 6.1 10.4 0.00 0.00 0.00 40 1011.0
20260503224518 55 263 5.2 11.3 0.00 0.00 0.00 41 1010.9
20260503223018 55 290 4.3 14.8 0.00 0.00 0.00 41 1011.0
20260503221516 55 212 6.1 13.0 0.00 0.00 0.00 40 1011.0
20260503220016 55 231 7.0 13.9 0.00 0.00 0.00 40 1011.1
20260503214600 55 245 8.7 20.9 0.00 0.00 0.00 39 1011.2
20260503213107 55 326 11.3 18.2 0.00 0.00 0.00 39 1011.1
20260503210048 55 264 7.0 21.7 0.00 0.00 0.00 40 1011.2
20260503204542 56 221 7.8 15.6 0.00 0.00 0.00 39 1011.1
20260503203024 54 269 6.1 17.4 0.00 0.00 0.00 40 1011.3
20260503201521 55 229 7.8 20.0 0.00 0.00 0.00 40 1011.4
20260503200020 54 240 7.0 20.0 0.00 0.00 0.00 41 1011.6
20260503194522 54 271 5.2 16.5 0.00 0.00 0.00 41 1011.9
20260503193027 54 239 6.1 15.6 0.00 0.00 0.00 42 1011.9
20260503191517 54 232 7.0 17.4 0.00 0.00 0.00 41 1012.2
20260503190014 54 280 7.0 16.5 0.00 0.00 0.00 42 1012.3
20260503184559 53 287 6.1 16.5 0.00 0.00 0.00 41 1012.4
20260503183111 53 275 7.0 14.8 0.00 0.00 0.00 41 1012.7
20260503181534 52 308 10.4 17.4 0.00 0.00 0.00 41 1012.8
20260503180040 52 278 9.6 18.2 0.00 0.00 0.00 40 1012.9
20260503174514 52 297 7.8 11.3 0.00 0.00 0.00 40 1012.9
20260503173015 52 312 4.3 13.9 0.00 0.00 0.00 41 1013.1
20260503171610 52 308 7.8 15.6 0.00 0.00 0.00 41 1013.2
20260503140139 43 265 5.2 16.5 0.00 0.00 0.00 64 1014.8
20260503120125 35 312 4.3 7.8 0.00 0.00 0.00 84 1015.0
20260503081558 30 291 1.7 2.6 0.00 0.00 0.00 91 1014.0
20260503071551 32 291 0.9 2.6 0.00 0.01 0.00 86 1013.7
20260503054547 34 293 1.7 2.6 0.00 0.01 0.00 83 1014.0
20260503053038 34 292 1.7 2.6 0.00 0.01 0.00 83 1014.0
20260503051533 34 292 0.0 2.6 0.00 0.01 0.00 82 1014.2
20260503050033 34 293 1.7 2.6 0.00 0.01 0.01 82 1014.2
20260503044533 34 291 1.7 3.5 0.00 0.01 0.01 82 1014.3
20260503043032 35 291 1.7 3.5 0.00 0.01 0.01 81 1014.4
20260503041532 35 291 0.9 2.6 0.00 0.01 0.01 78 1014.4
20260503040039 35 291 0.9 2.6 0.00 0.01 0.01 77 1014.5
20260503034544 36 291 0.9 2.6 0.00 0.01 0.01 76 1014.5
20260503033038 36 291 0.9 2.6 0.00 0.01 0.01 75 1014.4
20260503031537 37 289 1.7 3.5 0.00 0.01 0.01 74 1014.4